Back to catalog

STARLINK-5100

AliveCommunicationsVLEO
NORAD 55495·PAYLOAD·🇺🇸 United States

Launched Feb 2, 2023 from Cape Canaveral Space Force Station

Loading…

Next Passes (next 24 hours)

TLE

FreshSource: CelesTrak SupGP

Epoch: Sep 14, 2026, 22:07 UTC

1 55495C 23015AY  26257.92201389 -.00047722  00000+0 -17285-2 0  2570
2 55495  43.0028 332.8251 0001432 270.1958 131.1701 15.27601530    18

Track STARLINK-5100 in real time with AllMySat

Download on the App Store